Tracking 27172 objects as of 2-Apr-2023
HD Live streaming from Space Station
objects crossing your sky now

PSLV DEB

Track PSLV DEB now!
10-day predictions


NORAD ID: 27353
Int'l Code: 2001-049MA
Perigee: 450.0 km
Apogee: 467.5 km
Inclination: 97.6 °
Period: 93.6 minutes
Semi major axis: 6829 km
RCS: 0.0023 m2 (small)
Launch date: October 22, 2001
Source: India (IND)
Launch site: SRIHARIKOTA (SRI)

Note: This is SATELLITE DEBRIS
Your satellite tracking list
Your tracking list is empty




NASA's NSSDC Master Catalog

Two Line Element Set (TLE):
1 27353U 01049MA  23092.05073320  .00095467  00000-0  25102-2 0  9993
2 27353  97.5949 127.2975 0012834  73.0456 287.2194 15.38135019156833
Source of the keplerian elements: AFSPC